TIME,DELAY(SENSOR),PRES,OXYGEN,RAWTEMP,T(OPTODE),TCPHASE,FLUOR,BETA(BETA700),BETA(BETA412),BETA(BETA440),CDOM,C(CSC),ED(ED411.90),ED(ED443.80),ED(ED489.40),ED(ED554.70),LU(LU412.20),LU(LU443.80),LU(LU489.40),LU(LU555.00),COMP,TILTX,TILTY,CHECK
1339797711,5806,851.3300170898438000,180.7662048339843800,469.6412048339844000,8.4683914184570310,38.6236495971679700,52,104,102,81,82,15091,2146956772,2147515090,2147289097,2147517723,2147089993,2146928457,2147711835,2147116150,2308,-2,8,35329
1339801307,5803,974.0499877929688000,225.3377990722656200,529.2485961914062000,6.6191291809082030,36.9435501098632800,52,104,99,81,82,15039,2146957339,2147523053,2147295844,2147526107,2147091501,2146922249,2147722761,2147116150,2091,-1,8,9795
1339804907,5807,994.2500000000000000,237.1936035156250000,539.5803833007812000,6.2960739135742190,36.4979591369628900,52,104,101,82,82,15039,2146957275,2147519158,2147293860,2147524032,2147090834,2146914422,2147729280,2147116992,34,-1,8,23734
1339808507,5806,999.7800292968750000,237.3190002441406200,539.7717285156250000,6.2900848388671875,36.4945106506347660,53,102,100,80,81,15037,2146959168,2147519259,2147297206,2147528310,2147091629,2146920850,2147727744,2147113298,3529,-1,8,27089
1339812107,5804,1008.4699707031250000,237.4049987792968800,539.8635253906250000,6.2872099876403810,36.4920616149902340,53,101,100,80,81,15032,2146957860,2147520877,2147294226,2147527296,2147090688,2146916352,2147729627,2147114889,3545,-1,8,10731
1339815707,5805,1010.7800292968750000,238.4501037597656200,540.9771728515625000,6.2523350715637210,36.4576606750488300,52,102,99,80,81,15024,2146954468,2147522843,2147297508,2147526765,2147088978,2146925101,2147729718,2147113216,3467,-1,8,46483
1339819307,5807,1017.5499877929688000,239.3791961669922000,540.8400878906250000,6.2566280364990230,36.4080390930175800,53,103,100,81,82,15017,2146957101,2147521289,2147297773,2147530157,2147093577,2146923236,2147727213,2147116754,281,-1,8,50431
1339822907,5805,1018.1900024414062000,238.5473937988281200,540.5858154296875000,6.2645912170410160,36.4462089538574200,52,102,101,80,82,15013,2146956096,2147521371,2147297152,2147528932,2147089088,2146920073,2147727771,2147117421,3296,-1,8,38014
1339826507,5803,1017.6500244140625000,238.4980010986328000,541.2517700195312000,6.2437338829040530,36.4598884582519500,53,108,100,80,82,15016,2146955995,2147519259,2147300196,2147528539,2147089947,2146919021,2147726592,2147119936,2806,-1,8,44143
1339830107,5805,1016.0599975585938000,239.8936004638672000,542.5869750976562000,6.2019100189208980,36.4131088256835940,52,103,100,79,82,15010,2146960649,2147520219,2147299008,2147528448,2147088438,2146919478,2147727177,2147114176,3484,-1,8,29832
1339833707,5805,1016.0000000000000000,240.8126068115234400,543.2344970703125000,6.1816220283508300,36.3774681091308600,52,104,100,80,82,15008,2146953782,2147521179,2147297398,2147531456,2147090889,2146918180,2147726025,2147114130,3521,-2,8,18360
1339837307,5805,1012.3900146484375000,240.5558929443359400,543.2534790039062000,6.1810259819030760,36.3908195495605500,52,103,104,80,82,15012,2146953892,2147519451,2147296658,2147527460,2147091044,2146917120,2147729051,2147116096,3342,-1,8,31348
1339840907,5809,1011.5900268554688000,243.2100067138672000,545.7064819335938000,6.1041369438171390,36.3008804321289060,53,102,101,80,82,15006,2146958317,2147519680,2147300553,2147528164,2147092214,2146920018,2147730057,2147115053,84,-1,8,53291
1339844507,5808,1011.2100219726562000,245.5637054443359400,546.9146118164062000,6.0662498474121090,36.2039604187011700,52,102,101,80,81,15006,2146959579,2147523520,2147299154,2147526930,2147090788,2146920758,2147729947,2147116388,28,-1,8,32897
1339848107,5806,1011.7100219726562000,244.7427978515625000,547.8864746093750000,6.0357627868652340,36.2628593444824200,51,108,100,80,82,15005,2146955812,2147518052,2147298459,2147533129,2147088841,2146916873,2147728265,2147112996,112,-1,8,2580
1339851707,5806,1019.9899902343750000,246.0648040771484400,546.4351196289062000,6.0812888145446780,36.1699790954589840,52,107,101,80,82,15007,2146958518,2147517366,2147300260,2147531218,2147088201,2146921033,2147725248,2147114971,333,-1,8,36972
1339855307,5807,1019.7500000000000000,244.2035980224609400,545.9302978515625000,6.0971179008483890,36.2544403076171900,53,105,101,80,82,14994,2146956754,2147518345,2147297508,2147530852,2147091428,2146922797,2147731318,2147115849,166,-1,8,8267
1339858907,5808,1019.1199951171875000,244.8460998535156200,546.2164916992188000,6.0881438255310060,36.2272109985351560,51,105,100,79,82,14990,2146954742,2147519497,2147297033,2147529261,2147091602,2146920594,2147733138,2147115163,69,-1,7,46600
1339862507,5808,1023.7199707031250000,243.1423034667968800,544.7877197265625000,6.1329398155212400,36.2870101928710940,53,104,100,78,82,14985,2146953929,2147521078,2147297106,2147526802,2147091090,2146917275,2147731977,2147114752,140,-1,8,47822
1339866107,5804,1025.1700439453125000,242.5229949951172000,544.3015136718750000,6.1481800079345700,36.3096809387207000,52,103,101,79,82,14991,2146956681,2147522596,2147299181,2147528146,2147090057,2146920832,2147737188,2147116141,3540,-1,8,45528
1339869707,5805,1023.4600219726562000,242.2915039062500000,544.8024902343750000,6.1324791908264160,36.3308486938476560,51,105,101,79,83,14987,2146957650,2147518601,2147298541,2147529188,2147092818,2146918381,2147728448,2147115702,3552,-1,8,45647
1339873307,5806,1026.5100097656250000,242.5014038085937500,544.1041259765625000,6.1543669700622560,36.3074111938476560,51,105,99,79,82,14987,2146954267,2147523922,2147299986,2147524617,2147088859,2146916196,2147727186,2147115035,3421,-1,8,53601
1339876907,5807,1026.5300292968750000,241.3282012939453000,543.3698730468750000,6.1773800849914550,36.3534317016601560,52,102,99,81,82,14989,2146956873,2147524022,2147297810,2147527542,2147090166,2146919652,2147726518,2147117449,3457,-1,8,3545
1339880507,5808,1028.0400390625000000,240.0852966308593800,543.5051879882812000,6.1731381416320800,36.4194908142089840,52,105,100,80,83,14984,2146958208,2147519872,2147299328,2147531026,2147090240,2146917110,2147726838,2147115830,39,-1,8,849
1339884107,5806,1019.7000122070312000,241.8184051513672000,544.8538208007812000,6.1308689117431640,36.3550415039062500,53,106,101,79,82,14985,2146957686,2147524370,2147297033,2147527698,2147089316,2146922148,2147728027,2147116635,544,-1,8,1044
1339887707,5804,1021.8099975585938000,242.5928039550781200,546.3181152343750000,6.0849571228027340,36.3426094055175800,52,106,101,80,82,14985,2146957312,2147522313,2147296091,2147528758,2147090505,2146919094,2147728987,2147113554,3105,-1,8,49083
1339891307,5804,1019.1099853515625000,244.2431030273437500,547.7437133789062000,6.0402450561523440,36.2846908569335940,52,102,100,80,82,14985,2146957257,2147518336,2147297170,2147528886,2147089353,2146924434,2147728457,2147115273,3473,-1,8,19084
1339894907,5809,1019.0499877929688000,244.7404937744140600,547.7705078125000000,6.0394020080566410,36.2606506347656250,53,103,102,79,82,14986,2146956105,2147520420,2147296402,2147529462,2147091666,2146917732,2147729993,2147115547,18,-1,8,9695
1339898507,5807,1019.9500122070312000,246.6569976806640600,547.9995727539062000,6.0322170257568360,36.1691093444824200,53,102,100,80,83,14983,2146954212,2147520027,2147299337,2147530395,2147090240,2146920448,2147726893,2147112557,70,-1,8,63432
1339902107,5806,1017.7199707031250000,246.9907073974609400,548.9246215820312000,6.0031929016113280,36.1692810058593750,52,103,100,80,81,14983,2146957769,2147521371,2147296950,2147528310,2147091565,2146920768,2147730486,2147117824,184,-1,8,25107
1339905707,5802,1019.8800048828125000,246.2989959716797000,549.2902832031250000,5.9917178153991700,36.2099113464355500,52,102,101,80,81,14980,2146953307,2147518994,2147297892,2147528512,2147092324,2146923456,2147725083,2147117174,3409,-1,8,61573
1339909307,5804,1029.1600341796875000,245.0287933349609400,546.4641723632812000,6.0803780555725100,36.2230300903320300,52,108,101,80,82,14970,2146957878,2147521024,2147296832,2147530486,2147091977,2146923410,2147728813,2147119350,3181,-1,8,61504
1339912907,5806,1026.0200195312500000,243.8470001220703000,546.4824218750000000,6.0798068046569820,36.2823791503906250,51,103,102,80,82,14984,2146955776,2147520923,2147297234,2147528960,2147091867,2146924434,2147729206,2147116973,3481,-1,8,4351
1339916507,5805,1028.9000244140625000,242.9458007812500000,545.5170288085938000,6.1100788116455080,36.3101615905761700,52,104,100,81,82,14983,2146955702,2147518957,2147295844,2147527030,2147091465,2146919296,2147726098,2147116032,3310,-1,8,9486
1339920107,5808,1033.5500488281250000,241.6123046875000000,544.4556274414062000,6.1433510780334470,36.3586616516113300,52,102,101,80,81,14979,2146957193,2147521206,2147295579,2147530450,2147090386,2146919488,2147728338,2147115785,3598,-1,8,37365
1339923707,5809,1027.5799560546875000,241.7931060791015600,546.0618896484375000,6.0929927825927730,36.3787689208984400,51,104,100,87,83,14979,2146956708,2147521956,2147297344,2147532544,2147090898,2146921444,2147728173,2147117394,6,-1,8,31935
1339927307,5807,1028.1300048828125000,243.8860015869140600,546.9185791015625000,6.0661239624023440,36.2877311706543000,52,103,100,81,82,14970,2146955364,2147518793,2147295597,2147530249,2147092288,2146916150,2147728694,2147116617,40,-1,8,55944
1339930907,5807,1018.2399902343750000,244.1799926757812500,547.5446777343750000,6.0464878082275390,36.2849006652832000,53,104,101,80,82,14968,2146954404,2147522742,2147293760,2147528155,2147090642,2146918208,2147725522,2147117595,525,-1,8,15675
1339934507,5806,1023.8699951171875000,244.4356994628906200,547.9968872070312000,6.0323009490966800,36.2802696228027340,52,103,101,80,82,14971,2146955291,2147521819,2147300928,2147529956,2147093101,2146924507,2147730011,2147118966,899,-1,8,8032
1339938107,5804,1025.1199951171875000,245.1936035156250000,547.8364257812500000,6.0373358726501465,36.2391090393066400,53,104,100,78,83,14971,2146955657,2147516589,2147300361,2147525366,2147090861,2146917604,2147729554,2147117284,3571,-1,8,45051
1339940755,5805,1027.4300537109375000,244.8968963623047000,547.9782104492188000,6.0328869819641110,36.2565917968750000,52,104,101,79,82,15022,2146955465,2147515556,2147297216,2147530432,2147089197,2146919744,2147729243,2147115730,194,-1,8,34717
